Terminal Aerodrome Forecast
Issued by NWS Aberdeen, SD

Home | Current Version | Previous Version | Text Only | Print | Product List | Glossary On
Versions: 1 2 3 4 5 6 7 8 9 10 11 12 13 14 15 16 17 18 19 20 21 22 23 24 25 26 27 28 29 30 31 32 33 34 35 36 37 38 39 40 41 42 43 44
000
FTAK31 PAFA 171900 AAA
TAFABR
TAF AMD
PABR 171900Z 1719/1818 06014KT P6SM -SN OVC009
     FM172000 06018KT 1SM -SN OVC005
     FM181000 08014KT 2SM BR VCSH OVC005=

USA.gov is the U.S. government's official web portal to all federal, state and local government web resources and services.